Home   Weather   Nicosia   Past weeks

Flag for Cyprus Past Weather in Nicosia, Cyprus — Yesterday and Last 2 Weeks

Now
68 °F

Clear.


Feels Like: 68 °F
Forecast: 62 / 88 °F
Wind: 10 mph from Northwest

Location: Ercan

Current Time: Oct 2, 2016 at 1:31:09 AM

Latest Report: Oct 2, 2016 at 12:50 AM


Visibility: 10 mi

Pressure: 29.95 "Hg

Humidity: 73%

Dew Point: 59 °F

Location of NicosiaLocation

Past Weather in Nicosia — Graph

°F

Nicosia Temperature Yesterday

Maximum temperature yesterday: 88 °F (at 12:20 PM)
Minimum temperature yesterday: 64 °F (at 6:50 AM)
Average temperature yesterday: 76 °F

High & Low Weather Summary for the Past Weeks

 TemperatureHumidityPressure
High93 °F (Sep 17, 2:50 PM)88% (Sep 20, 3:50 AM)30.09 "Hg (Sep 20, 3:50 AM)
Low63 °F (Sep 24, 6:20 AM)11% (Sep 30, 3:50 PM)29.77 "Hg (Sep 20, 2:50 PM)
Average77 °F47%29.92 "Hg
* Reported Sep 17 12:20 AM — Oct 2 12:20 AM, Nicosia, Weather by CustomWeather, © 2016

Note: Actual official high and low records may vary slightly from our data, if they occured in-between our weather recording intervals... More about our weather records

Advertising

Nicosia Weather History for the Previous 24 Hours

Scroll right to see more
 ConditionsComfort  
Time TempWeatherWind HumidityBarometerVisibility
12:20 AM
Sun, Oct 2
70 °FClear.10 mph73%29.95 "Hg10 mi
11:50 PM
Sat, Oct 1
70 °FClear.10 mph69%29.95 "Hg10 mi
11:20 PM70 °FClear.9 mph64%29.95 "Hg10 mi
10:50 PM70 °FClear.10 mph46%29.95 "Hg10 mi
10:20 PM72 °FPassing clouds.7 mph41%29.95 "HgN/A
9:50 PM72 °FClear.3 mph41%29.95 "Hg10 mi
9:20 PM75 °FClear.No wind36%29.95 "Hg10 mi
8:50 PM73 °FClear.No wind38%29.95 "Hg10 mi
8:20 PM73 °FClear.5 mph36%29.95 "Hg10 mi
7:50 PM77 °FPassing clouds.5 mph34%29.95 "HgN/A
7:20 PM77 °FClear.6 mph34%29.95 "Hg10 mi
6:50 PM81 °FClear.7 mph28%29.92 "Hg10 mi
6:20 PM82 °FSunny.8 mph26%29.92 "Hg10 mi
5:50 PM84 °FSunny.8 mph25%29.92 "Hg10 mi
5:20 PM84 °FPassing clouds.9 mph23%29.92 "HgN/A
4:50 PM86 °FPassing clouds.9 mph22%29.92 "HgN/A
4:20 PM86 °FPassing clouds.10 mph22%29.92 "HgN/A
3:50 PM88 °FPassing clouds.14 mph19%29.92 "HgN/A
3:20 PM88 °FPassing clouds.10 mph21%29.92 "HgN/A
2:50 PM86 °FPassing clouds.10 mph24%29.95 "HgN/A
2:20 PM88 °FPassing clouds.12 mph24%29.95 "HgN/A
1:50 PM86 °FPassing clouds.10 mph25%29.95 "HgN/A
1:20 PM86 °FPassing clouds.13 mph24%29.95 "HgN/A
12:50 PM86 °FPassing clouds.12 mph24%29.95 "HgN/A
12:20 PM88 °FPassing clouds.13 mph21%29.98 "HgN/A
11:50 AM86 °FPassing clouds.13 mph25%29.98 "HgN/A
11:20 AM86 °FPassing clouds.13 mph25%29.98 "HgN/A
10:50 AM84 °FPassing clouds.14 mph31%29.98 "HgN/A
10:20 AM84 °FPassing clouds.14 mph33%29.98 "HgN/A
9:50 AM82 °FPassing clouds.13 mph35%29.98 "HgN/A
9:20 AM79 °FPassing clouds.6 mph48%29.98 "HgN/A
8:50 AM77 °FSunny.3 mph47%29.98 "Hg10 mi
8:20 AM73 °FSunny.5 mph44%29.95 "Hg10 mi
7:50 AM68 °FSunny.5 mph53%29.95 "Hg10 mi
7:20 AM66 °FPassing clouds.7 mph56%29.95 "HgN/A
6:50 AM64 °FSunny.7 mph56%29.95 "Hg10 mi
6:20 AM66 °FPassing clouds.5 mph56%29.95 "HgN/A
5:50 AM66 °FClear.7 mph56%29.95 "Hg10 mi
5:20 AM66 °FClear.6 mph56%29.95 "Hg10 mi
4:50 AM66 °FClear.9 mph56%29.95 "Hg10 mi
4:20 AM66 °FClear.9 mph60%29.95 "Hg10 mi
3:50 AM68 °FClear.10 mph56%29.95 "Hg10 mi
3:20 AM68 °FClear.10 mph60%29.95 "Hg10 mi
2:50 AM68 °FClear.12 mph64%29.95 "Hg10 mi
2:20 AM68 °FClear.12 mph69%29.95 "Hg10 mi
1:50 AM68 °FClear.10 mph64%29.95 "Hg10 mi
1:20 AM68 °FClear.10 mph64%29.95 "Hg10 mi
Weather by CustomWeather, © 2016

See weather overviewHow to use our weather pages